Flag for Ecuador Weather past 2 weeks in Guayaquil, Ecuador

Now
81 °F

Passing clouds.


Feels Like: 85 °F
Forecast: 74 / 89 °F
Wind: 7 mph from South

Location: Guayaquil / Simon Bolivar

Current Time: Jul 7, 2015 at 9:27:28 PM

Latest Report: Jul 7, 2015 at 9:00 PM


Visibility: N/A

Pressure: 29.86 "Hg

Humidity: 79%

Dew point: 73 °F

Location of GuayaquilLocation

Historic Weather in Guayaquil — Graph

°F

Guayaquil temperature yesterday

Maximum temperature yesterday: 91 °F (at 2:00 PM)
Minimum temperature yesterday: 75 °F (at 4:00 AM)
Average temperature yesterday: 82 °F

Past Weeks' High & Low Weather Summary

 TemperatureHumidityPressure
High91 °F (Jun 24, 2:00 PM)89% (Jun 25, 1:00 AM)29.92 "Hg (Jun 25, 1:00 AM)
Low73 °F (Jun 25, 1:00 AM)52% (Jun 24, 2:00 PM)29.62 "Hg (Jul 3, 5:00 PM)
Average80 °F72%29.80 "Hg
* Reported Jun 22 8:00 PM — Jul 7 8:00 PM, Guayaquil, Weather by CustomWeather, © 2015

Note: Actual official high and low records may vary slightly from our data, if they occured in-between our weather recording intervals... More about our weather records

Advertising

Guayaquil weather history for previous 24 hours

 ConditionsComfort  
Time TempWeatherWind HumidityBarometerVisibility
8:00 PM
Tue, Jul 7
81 °FPartly cloudy.3 mph79%29.86 "HgN/A
7:00 PM82 °FPassing clouds.3 mph74%29.83 "HgN/A
6:00 PM82 °FBroken clouds.7 mph74%29.80 "HgN/A
5:00 PM84 °FPartly sunny.6 mph66%29.80 "HgN/A
4:00 PM84 °FPartly sunny.8 mph66%29.80 "HgN/A
3:00 PM86 °FScattered clouds.5 mph59%29.80 "HgN/A
1:00 PM84 °FPassing clouds.8 mph62%29.86 "HgN/A
12:00 PM84 °FPassing clouds.10 mph62%29.89 "HgN/A
11:00 AM82 °FBroken clouds.12 mph66%29.89 "HgN/A
10:00 AM79 °FBroken clouds.5 mph70%29.92 "HgN/A
9:00 AM77 °FBroken clouds.6 mph74%29.92 "HgN/A
8:00 AM75 °FBroken clouds.1 mph78%29.89 "HgN/A
7:00 AM75 °FBroken clouds.5 mph78%29.89 "HgN/A
6:00 AM75 °FPassing clouds.8 mph78%29.86 "HgN/A
5:00 AM73 °FPassing clouds.8 mph83%29.86 "HgN/A
4:00 AM75 °FPartly cloudy.8 mph78%29.86 "HgN/A
3:00 AM75 °FPartly cloudy.8 mph78%29.86 "HgN/A
2:00 AM75 °FPartly cloudy.9 mph78%29.86 "HgN/A
1:00 AM75 °FPartly cloudy.13 mph78%29.89 "HgN/A
12:00 AM77 °FPartly cloudy.9 mph74%29.89 "HgN/A
11:00 PM
Mon, Jul 6
77 °FPassing clouds.14 mph79%29.86 "HgN/A
10:00 PM77 °FPassing clouds.14 mph79%29.86 "HgN/A
9:00 PM81 °FPassing clouds.9 mph66%29.83 "HgN/A
Weather by CustomWeather, © 2015

See weather overviewHow to use our weather pages